,,Stat5,,Stat1,,Stat2,,Stat3,,Stat4,,Wind1,,Wind1,
time,status,PA1M_AVG,status,PR1M_SUM,status,RH1M_AVG,status,SR1M_AVG,status,TA1M_AVG,status,W1dAve1m,status,W1sAve1m,
2001-12-05, 00:00:00,VALID,917.915,VALID,0,VALID,95.3843,VALID,0.0849042,VALID,20.1438,VALID,11,VALID,0.592311,
2001-12-05, 00:01:00,VALID,917.878,VALID,0,VALID,95.1987,VALID,0.0679233,VALID,20.112,VALID,9,VALID,0.498998,
2001-12-05, 00:02:00,VALID,917.857,VALID,0,VALID,95.1084,VALID,0.0679233,VALID,20.0948,VALID,32,VALID,0.264022,
2001-12-05, 00:03:00,VALID,917.856,VALID,0,VALID,95.2546,VALID,0.0849042,VALID,20.111,VALID,28,VALID,0.297476,
2001-12-05, 00:04:00,VALID,917.838,VALID,0,VALID,95.2381,VALID,0.0849042,VALID,20.1368,VALID,18,VALID,0.393092,
2001-12-05, 00:05:00,VALID,917.855,VALID,0,VALID,95.0588,VALID,0.0169808,VALID,20.1545,VALID,14,VALID,0.40645,
2001-12-05, 00:06:00,VALID,917.841,VALID,0,VALID,94.7638,VALID,-0.0509425,VALID,20.1418,VALID,360,VALID,0.545536,
2001-12-05, 00:07:00,VALID,917.839,VALID,0,VALID,94.7841,VALID,-0.0169808,VALID,20.1294,VALID,7,VALID,0.614062,
2001-12-05, 00:08:00,VALID,917.821,VALID,0,VALID,94.8096,VALID,-0.0509425,VALID,20.113,VALID,8,VALID,0.648872,
2001-12-05, 00:09:00,VALID,917.787,VALID,0,VALID,94.8147,VALID,0,VALID,20.1068,VALID,12,VALID,0.602648,
2001-12-05, 00:10:00,VALID,917.776,VALID,0,VALID,94.8528,VALID,-0.0169808,VALID,20.0971,VALID,4,VALID,0.718117,
2001-12-05, 00:11:00,VALID,917.777,VALID,0,VALID,94.7282,VALID,0,VALID,20.0615,VALID,357,VALID,0.717928,
2001-12-05, 00:12:00,VALID,917.78,VALID,0,VALID,94.6379,VALID,0,VALID,20.0069,VALID,353,VALID,0.86046,
2001-12-05, 00:13:00,VALID,917.78,VALID,0,VALID,94.6938,VALID,0,VALID,19.9808,VALID,334,VALID,0.887458,
2001-12-05, 00:14:00,VALID,917.789,VALID,0,VALID,94.9342,VALID,-0.0169808,VALID,19.9283,VALID,297,VALID,0.566964,
2001-12-05, 00:15:00,VALID,917.817,VALID,0,VALID,95.2063,VALID,0,VALID,19.9316,VALID,331,VALID,0.450658,
2001-12-05, 00:16:00,VALID,917.82,VALID,0,VALID,95.3182,VALID,-0.0509425,VALID,19.9157,VALID,360,VALID,0.088049,
2001-12-05, 00:17:00,VALID,917.823,VALID,0,VALID,95.6272,VALID,0,VALID,19.9383,VALID,5,VALID,0.164634,
2001-12-05, 00:18:00,VALID,917.814,VALID,0,VALID,95.8396,VALID,-0.0169808,VALID,19.9606,VALID,10,VALID,0.16582,
2001-12-05, 00:19:01,VALID,917.813,VALID,0,VALID,95.8904,VALID,-0.0169808,VALID,19.987,VALID,13,VALID,0.181332,
2001-12-05, 00:20:00,VALID,917.81,VALID,0,VALID,95.9209,VALID,0,VALID,19.987,VALID,14,VALID,0.431949,
2001-12-05, 00:21:00,VALID,917.822,VALID,0,VALID,95.7849,VALID,0,VALID,19.9611,VALID,341,VALID,0.544727,
2001-12-05, 00:22:00,VALID,917.825,VALID,0,VALID,95.7684,VALID,0,VALID,19.9353,VALID,355,VALID,0.383013,
2001-12-05, 00:23:01,VALID,917.839,VALID,0,VALID,95.776,VALID,0,VALID,19.9224,VALID,356,VALID,0.530357,
2001-12-05, 00:24:00,VALID,917.851,VALID,0,VALID,95.4784,VALID,0,VALID,19.8642,VALID,351,VALID,0.726172,
2001-12-05, 00:25:00,VALID,917.862,VALID,0,VALID,95.4899,VALID,-0.0339617,VALID,19.8349,VALID,359,VALID,0.644748,
2001-12-05, 00:26:01,VALID,917.866,VALID,0,VALID,95.4365,VALID,0,VALID,19.8252,VALID,7,VALID,0.81901,
2001-12-05, 00:27:01,VALID,917.862,VALID,0,VALID,95.2953,VALID,-0.0169808,VALID,19.78,VALID,12,VALID,1.13321,
2001-12-05, 00:28:00,VALID,917.845,VALID,0,VALID,95.3258,VALID,0,VALID,19.7673,VALID,19,VALID,1.11287,
2001-12-05, 00:29:00,VALID,917.82,VALID,0,VALID,95.2737,VALID,0,VALID,19.7638,VALID,23,VALID,1.0035,
2001-12-05, 00:30:00,VALID,917.819,VALID,0,VALID,95.2038,VALID,0,VALID,19.7514,VALID,17,VALID,0.764358,
2001-12-05, 00:31:00,VALID,917.828,VALID,0,VALID,95.2088,VALID,0,VALID,19.7313,VALID,9,VALID,0.546224,
2001-12-05, 00:32:01,VALID,917.826,VALID,0,VALID,95.1872,VALID,0,VALID,19.7221,VALID,351,VALID,0.512458,
2001-12-05, 00:33:00,VALID,917.84,VALID,0,VALID,95.1465,VALID,0,VALID,19.6893,VALID,333,VALID,0.41653,
2001-12-05, 00:34:01,VALID,917.822,VALID,0,VALID,95.2025,VALID,0,VALID,19.6736,VALID,348,VALID,0.586739,
2001-12-05, 00:35:00,VALID,917.828,VALID,0,VALID,95.3894,VALID,0,VALID,19.6699,VALID,359,VALID,0.196514,
2001-12-05, 00:36:01,VALID,917.809,VALID,0,VALID,95.7086,VALID,0,VALID,19.689,VALID,348,VALID,0.0204814,
2001-12-05, 00:37:00,VALID,917.804,VALID,0,VALID,95.8561,VALID,0,VALID,19.7251,VALID,348,VALID,0.0516036,
2001-12-05, 00:38:00,VALID,917.795,VALID,0,VALID,95.8752,VALID,-0.0169808,VALID,19.7477,VALID,348,VALID,0.00360577,
2001-12-05, 00:39:00,VALID,917.775,VALID,0,VALID,95.8599,VALID,0,VALID,19.7514,VALID,354,VALID,0.198317,
2001-12-05, 00:40:00,VALID,917.776,VALID,0,VALID,95.7175,VALID,0,VALID,19.7519,VALID,6,VALID,0.340074,
2001-12-05, 00:41:00,VALID,917.766,VALID,0,VALID,95.7302,VALID,0,VALID,19.7218,VALID,5,VALID,0.0766859,
2001-12-05, 00:42:00,VALID,917.775,VALID,0,VALID,95.8167,VALID,0,VALID,19.7258,VALID,4,VALID,0.0413851,
2001-12-05, 00:43:00,VALID,917.775,VALID,0,VALID,95.9807,VALID,0,VALID,19.7318,VALID,259,VALID,0.340929,
2001-12-05, 00:44:01,VALID,917.778,VALID,0,VALID,96.0863,VALID,0,VALID,19.7318,VALID,198,VALID,0.602865,
2001-12-05, 00:45:00,VALID,917.779,VALID,0,VALID,96.1943,VALID,0,VALID,19.7189,VALID,186,VALID,0.638158,
2001-12-05, 00:46:01,VALID,917.779,VALID,0,VALID,96.3113,VALID,-0.0169808,VALID,19.7002,VALID,182,VALID,0.791807,
2001-12-05, 00:47:00,VALID,917.788,VALID,0,VALID,96.4118,VALID,-0.0339617,VALID,19.6833,VALID,178,VALID,0.69308,
2001-12-05, 00:48:00,VALID,917.776,VALID,0,VALID,96.4639,VALID,-0.0339617,VALID,19.6774,VALID,164,VALID,0.663616,
2001-12-05, 00:49:00,VALID,917.777,VALID,0,VALID,96.5161,VALID,0,VALID,19.6448,VALID,168,VALID,0.638569,
2001-12-05, 00:50:01,VALID,917.778,VALID,0,VALID,96.6025,VALID,-0.0169808,VALID,19.622,VALID,170,VALID,0.650641,
2001-12-05, 00:51:00,VALID,917.772,VALID,0,VALID,96.689,VALID,0,VALID,19.6058,VALID,167,VALID,0.279102,
2001-12-05, 00:52:01,VALID,917.781,VALID,0,VALID,96.806,VALID,0,VALID,19.5864,VALID,167,VALID,0,
2001-12-05, 00:53:01,VALID,917.768,VALID,0,VALID,96.8276,VALID,0.0169808,VALID,19.5807,VALID,159,VALID,0.0082348,
2001-12-05, 00:54:00,VALID,917.775,VALID,0,VALID,96.7475,VALID,0.0169808,VALID,19.5444,VALID,343,VALID,0.258413,
2001-12-05, 00:55:01,VALID,917.788,VALID,0,VALID,96.6839,VALID,0.0169808,VALID,19.5285,VALID,343,VALID,0,
2001-12-05, 00:56:00,VALID,917.795,VALID,0,VALID,96.6801,VALID,0,VALID,19.5221,VALID,343,VALID,0,
2001-12-05, 00:57:01,VALID,917.788,VALID,0,VALID,96.6852,VALID,0,VALID,19.5062,VALID,343,VALID,0,
2001-12-05, 00:58:00,VALID,917.783,VALID,0,VALID,96.5186,VALID,-0.0169808,VALID,19.49,VALID,344,VALID,0,
2001-12-05, 00:59:00,VALID,917.75,VALID,0,VALID,96.1651,VALID,-0.0509425,VALID,19.4363,VALID,348,VALID,0,
2001-12-05, 01:00:01,VALID,917.742,VALID,0,VALID,96.01,VALID,-0.101885,VALID,19.3881,VALID,352,VALID,0,
2001-12-05, 01:01:00,VALID,917.733,VALID,0,VALID,95.8955,VALID,-0.101885,VALID,19.3526,VALID,352,VALID,0,
2001-12-05, 01:02:01,VALID,917.723,VALID,0,VALID,95.9578,VALID,-0.101885,VALID,19.3267,VALID,352,VALID,0,
2001-12-05, 01:03:00,VALID,917.728,VALID,0,VALID,96.1206,VALID,-0.101885,VALID,19.3272,VALID,352,VALID,0,
2001-12-05, 01:04:00,VALID,917.731,VALID,0,VALID,96.2274,VALID,-0.101885,VALID,19.3302,VALID,352,VALID,0,
2001-12-05, 01:05:00,VALID,917.723,VALID,0,VALID,96.2249,VALID,-0.0339617,VALID,19.3329,VALID,352,VALID,0,
2001-12-05, 01:06:00,VALID,917.719,VALID,0,VALID,96.3406,VALID,-0.0169808,VALID,19.329,VALID,352,VALID,0,
2001-12-05, 01:07:01,VALID,917.733,VALID,0,VALID,96.4538,VALID,0,VALID,19.3422,VALID,352,VALID,0,
2001-12-05, 01:08:00,VALID,917.714,VALID,0,VALID,96.5555,VALID,-0.0339617,VALID,19.3613,VALID,352,VALID,0,
2001-12-05, 01:09:00,VALID,917.713,VALID,0,VALID,96.6025,VALID,0,VALID,19.3841,VALID,352,VALID,0,
2001-12-05, 01:10:01,VALID,917.701,VALID,0,VALID,96.5389,VALID,0,VALID,19.3742,VALID,352,VALID,0,
2001-12-05, 01:11:00,VALID,917.698,VALID,0,VALID,96.3584,VALID,0,VALID,19.3583,VALID,352,VALID,0,
2001-12-05, 01:12:00,VALID,917.698,VALID,0,VALID,96.2299,VALID,-0.0169808,VALID,19.3297,VALID,352,VALID,0,
2001-12-05, 01:13:00,VALID,917.71,VALID,0,VALID,96.2681,VALID,0,VALID,19.287,VALID,352,VALID,0,
2001-12-05, 01:14:01,VALID,917.707,VALID,0,VALID,95.715,VALID,0,VALID,19.2197,VALID,352,VALID,0,
2001-12-05, 01:15:00,VALID,917.697,VALID,0,VALID,95.0893,VALID,-0.0169808,VALID,19.0641,VALID,357,VALID,0,
2001-12-05, 01:16:00,VALID,917.696,VALID,0,VALID,94.9088,VALID,0,VALID,18.9479,VALID,2,VALID,0,
2001-12-05, 01:17:01,VALID,917.689,VALID,0,VALID,95.0982,VALID,0,VALID,18.8542,VALID,11,VALID,0.093967,
2001-12-05, 01:18:01,VALID,917.68,VALID,0,VALID,95.378,VALID,0.0169808,VALID,18.7774,VALID,21,VALID,0.728165,
2001-12-05, 01:19:00,VALID,917.679,VALID,0,VALID,95.5891,VALID,0,VALID,18.722,VALID,22,VALID,0.530222,
2001-12-05, 01:20:00,VALID,917.653,VALID,0,VALID,95.7773,VALID,0.0339617,VALID,18.6604,VALID,23,VALID,0.543997,
2001-12-05, 01:21:00,VALID,917.651,VALID,0,VALID,95.7455,VALID,0,VALID,18.6157,VALID,23,VALID,0.543919,
2001-12-05, 01:22:00,VALID,917.633,VALID,0,VALID,95.9146,VALID,0.0169808,VALID,18.5707,VALID,17,VALID,0.641927,
2001-12-05, 01:23:00,VALID,917.634,VALID,0,VALID,96.9586,VALID,-0.0339617,VALID,18.6286,VALID,15,VALID,0.54223,
2001-12-05, 01:24:00,VALID,917.632,VALID,0,VALID,97.1773,VALID,0,VALID,18.6768,VALID,7,VALID,0.241982,
2001-12-05, 01:25:01,VALID,917.625,VALID,0,VALID,97.3235,VALID,0,VALID,18.7356,VALID,354,VALID,0.0304487,
2001-12-05, 01:26:00,VALID,917.616,VALID,0,VALID,97.3248,VALID,0,VALID,18.7518,VALID,354,VALID,0,
2001-12-05, 01:27:01,VALID,917.611,VALID,0,VALID,96.9955,VALID,0,VALID,18.6997,VALID,354,VALID,0,
2001-12-05, 01:28:00,VALID,917.62,VALID,0,VALID,96.7068,VALID,0,VALID,18.6383,VALID,354,VALID,0,
2001-12-05, 01:29:00,VALID,917.62,VALID,0,VALID,96.6865,VALID,0,VALID,18.6162,VALID,354,VALID,0,
2001-12-05, 01:30:00,VALID,917.627,VALID,0,VALID,96.7424,VALID,0,VALID,18.6099,VALID,349,VALID,0.0697115,
2001-12-05, 01:31:00,VALID,917.632,VALID,0,VALID,96.9306,VALID,0,VALID,18.6127,VALID,347,VALID,0,
2001-12-05, 01:32:00,VALID,917.628,VALID,0,VALID,97.5817,VALID,0,VALID,18.7451,VALID,339,VALID,0.240337,
2001-12-05, 01:33:00,VALID,917.615,VALID,0,VALID,97.8436,VALID,0,VALID,18.8231,VALID,333,VALID,0.235431,
2001-12-05, 01:34:00,VALID,917.6,VALID,0,VALID,97.9339,VALID,0,VALID,18.8485,VALID,325,VALID,0.0286458,
2001-12-05, 01:35:00,VALID,917.572,VALID,0,VALID,98.0153,VALID,0,VALID,18.8904,VALID,325,VALID,0.00347222,
2001-12-05, 01:36:00,VALID,917.553,VALID,0,VALID,98.0649,VALID,-0.0169808,VALID,18.9133,VALID,325,VALID,0,
2001-12-05, 01:37:01,VALID,917.53,VALID,0,VALID,98,VALID,0,VALID,18.914,VALID,325,VALID,0,
2001-12-05, 01:38:00,VALID,917.51,VALID,0,VALID,97.8271,VALID,0.0169808,VALID,18.8678,VALID,325,VALID,0,
2001-12-05, 01:39:01,VALID,917.479,VALID,0,VALID,97.9046,VALID,0,VALID,18.8457,VALID,246,VALID,0.335938,
2001-12-05, 01:40:01,VALID,917.461,VALID,0,VALID,98.0445,VALID,0,VALID,18.8547,VALID,239,VALID,0.302632,
2001-12-05, 01:41:01,VALID,917.457,VALID,0,VALID,98.131,VALID,0,VALID,18.8745,VALID,220,VALID,0.217748,
2001-12-05, 01:42:01,VALID,917.454,VALID,0,VALID,98.1348,VALID,0,VALID,18.8646,VALID,196,VALID,0.0654297,
2001-12-05, 01:43:01,VALID,917.468,VALID,0,VALID,98.1501,VALID,-0.0169808,VALID,18.8616,VALID,190,VALID,0.0816201,
2001-12-05, 01:44:01,VALID,917.477,VALID,0,VALID,98.1971,VALID,0,VALID,18.8512,VALID,190,VALID,0,
2001-12-05, 01:45:00,VALID,917.483,VALID,0,VALID,98.2594,VALID,-0.0169808,VALID,18.8646,VALID,190,VALID,0,
2001-12-05, 01:46:01,VALID,917.476,VALID,0,VALID,98.2632,VALID,0,VALID,18.8678,VALID,190,VALID,0,
2001-12-05, 01:47:00,VALID,917.461,VALID,0,VALID,98.2429,VALID,-0.0169808,VALID,18.8549,VALID,190,VALID,0,
2001-12-05, 01:48:01,VALID,917.448,VALID,0,VALID,98.2899,VALID,-0.0169808,VALID,18.8519,VALID,190,VALID,0,
2001-12-05, 01:49:01,VALID,917.431,VALID,0,VALID,98.2836,VALID,0,VALID,18.8457,VALID,132,VALID,0.0267578,
2001-12-05, 01:50:01,VALID,917.422,VALID,0,VALID,98.2289,VALID,0.0169808,VALID,18.8226,VALID,33,VALID,0.0256076,
2001-12-05, 01:51:01,VALID,917.428,VALID,0,VALID,98,VALID,-0.0169808,VALID,18.765,VALID,42,VALID,0.118924,
2001-12-05, 01:52:00,VALID,917.441,VALID,0,VALID,97.911,VALID,0,VALID,18.6964,VALID,50,VALID,0.12859,
2001-12-05, 01:53:01,VALID,917.453,VALID,0,VALID,98.0026,VALID,0,VALID,18.6614,VALID,50,VALID,0.0293997,
2001-12-05, 01:54:01,VALID,917.467,VALID,0,VALID,98.1246,VALID,0,VALID,18.6618,VALID,50,VALID,0,
2001-12-05, 01:55:01,VALID,917.469,VALID,0,VALID,98.1882,VALID,-0.0169808,VALID,18.6614,VALID,50,VALID,0,
2001-12-05, 01:56:01,VALID,917.455,VALID,0,VALID,98.2276,VALID,0,VALID,18.6745,VALID,50,VALID,0,
2001-12-05, 01:57:01,VALID,917.428,VALID,0,VALID,98.0674,VALID,-0.0509425,VALID,18.6261,VALID,50,VALID,0,
2001-12-05, 01:58:01,VALID,917.403,VALID,0,VALID,97.8856,VALID,-0.0509425,VALID,18.5553,VALID,50,VALID,0,
2001-12-05, 01:59:01,VALID,917.382,VALID,0,VALID,97.9161,VALID,0,VALID,18.4934,VALID,50,VALID,0,
2001-12-05, 02:00:01,VALID,917.364,VALID,0,VALID,98.1132,VALID,-0.0169808,VALID,18.4807,VALID,50,VALID,0,
2001-12-05, 02:01:01,VALID,917.345,VALID,0,VALID,98.2213,VALID,0,VALID,18.4902,VALID,50,VALID,0,
2001-12-05, 02:02:01,VALID,917.339,VALID,0,VALID,98.3001,VALID,-0.0339617,VALID,18.4999,VALID,50,VALID,0,
2001-12-05, 02:03:01,VALID,917.337,VALID,0,VALID,98.2302,VALID,0,VALID,18.4967,VALID,50,VALID,0.170508,
2001-12-05, 02:04:01,VALID,917.336,VALID,0,VALID,98.2162,VALID,-0.0169808,VALID,18.4708,VALID,50,VALID,0,
2001-12-05, 02:05:01,VALID,917.311,VALID,0,VALID,98.2709,VALID,0,VALID,18.4418,VALID,110,VALID,0.000892857,
2001-12-05, 02:06:01,VALID,917.311,VALID,0,VALID,98.309,VALID,0,VALID,18.4355,VALID,115,VALID,0,
2001-12-05, 02:07:01,VALID,917.313,VALID,0,VALID,98.3116,VALID,0,VALID,18.4194,VALID,118,VALID,0.49783,
2001-12-05, 02:08:01,VALID,917.309,VALID,0,VALID,98.4324,VALID,-0.0169808,VALID,18.4097,VALID,124,VALID,0.921007,
2001-12-05, 02:09:01,VALID,917.306,VALID,0,VALID,98.515,VALID,0,VALID,18.4194,VALID,117,VALID,0.760216,
2001-12-05, 02:10:01,VALID,917.314,VALID,0,VALID,98.4438,VALID,-0.0169808,VALID,18.4,VALID,87,VALID,0.361431,
2001-12-05, 02:11:01,VALID,917.307,VALID,0,VALID,98.2747,VALID,-0.0169808,VALID,18.3324,VALID,93,VALID,0.325247,
2001-12-05, 02:12:01,VALID,917.309,VALID,0,VALID,98.1208,VALID,-0.0169808,VALID,18.2388,VALID,60,VALID,0.446579,
2001-12-05, 02:13:01,VALID,917.305,VALID,0,VALID,98.2022,VALID,-0.0169808,VALID,18.1869,VALID,57,VALID,0.569444,
2001-12-05, 02:14:01,VALID,917.291,VALID,0,VALID,98.3777,VALID,0,VALID,18.203,VALID,47,VALID,0.494299,
2001-12-05, 02:15:01,VALID,917.283,VALID,0,VALID,98.3077,VALID,0,VALID,18.1836,VALID,36,VALID,0.172081,
2001-12-05, 02:16:00,VALID,917.26,VALID,0,VALID,98.3955,VALID,0,VALID,18.1906,VALID,36,VALID,0.020633,
2001-12-05, 02:17:00,VALID,917.231,VALID,0,VALID,98.4654,VALID,-0.0509425,VALID,18.2231,VALID,36,VALID,0,
2001-12-05, 02:18:00,VALID,917.211,VALID,0,VALID,98.3573,VALID,-0.0339617,VALID,18.2162,VALID,36,VALID,0,
2001-12-05, 02:19:00,VALID,917.164,VALID,0,VALID,98.3128,VALID,0,VALID,18.1839,VALID,36,VALID,0,
2001-12-05, 02:20:00,VALID,917.138,VALID,0,VALID,98.3993,VALID,-0.0169808,VALID,18.2,VALID,36,VALID,0,
2001-12-05, 02:21:00,VALID,917.112,VALID,0,VALID,98.5392,VALID,0,VALID,18.2741,VALID,36,VALID,0,
2001-12-05, 02:22:00,VALID,917.086,VALID,0,VALID,98.5722,VALID,-0.0339617,VALID,18.3096,VALID,36,VALID,0,
2001-12-05, 02:23:00,VALID,917.052,VALID,0,VALID,98.5761,VALID,0,VALID,18.3359,VALID,36,VALID,0,
2001-12-05, 02:24:00,VALID,917.03,VALID,0,VALID,98.5799,VALID,0,VALID,18.3583,VALID,36,VALID,0,
2001-12-05, 02:25:00,VALID,917.012,VALID,0,VALID,98.5176,VALID,-0.0169808,VALID,18.3419,VALID,36,VALID,0,
2001-12-05, 02:26:00,VALID,916.989,VALID,0,VALID,98.4667,VALID,-0.0169808,VALID,18.3327,VALID,36,VALID,0,
2001-12-05, 02:27:00,VALID,916.984,VALID,0,VALID,98.4464,VALID,-0.0169808,VALID,18.3202,VALID,36,VALID,0,
2001-12-05, 02:28:00,VALID,916.982,VALID,0,VALID,98.3586,VALID,0,VALID,18.2612,VALID,36,VALID,0,
2001-12-05, 02:29:00,VALID,916.972,VALID,0,VALID,98.3294,VALID,0,VALID,18.2388,VALID,36,VALID,0,
2001-12-05, 02:30:00,VALID,916.962,VALID,0,VALID,98.3052,VALID,-0.0169808,VALID,18.2065,VALID,36,VALID,0,
2001-12-05, 02:31:00,VALID,916.962,VALID,0,VALID,98.3713,VALID,0,VALID,18.1936,VALID,36,VALID,0,
2001-12-05, 02:32:00,VALID,916.954,VALID,0,VALID,98.4095,VALID,0,VALID,18.1901,VALID,36,VALID,0,
2001-12-05, 02:33:00,VALID,916.959,VALID,0,VALID,98.3968,VALID,0.0169808,VALID,18.1871,VALID,36,VALID,0,
2001-12-05, 02:34:00,VALID,916.966,VALID,0,VALID,98.248,VALID,0,VALID,18.1456,VALID,36,VALID,0,
2001-12-05, 02:35:00,VALID,916.96,VALID,0,VALID,98.3014,VALID,0,VALID,18.1066,VALID,36,VALID,0,
2001-12-05, 02:36:00,VALID,916.948,VALID,0,VALID,98.4158,VALID,0,VALID,18.1258,VALID,36,VALID,0,
2001-12-05, 02:37:00,VALID,916.933,VALID,0,VALID,98.1857,VALID,-0.0339617,VALID,18.0739,VALID,36,VALID,0,
2001-12-05, 02:38:00,VALID,916.917,VALID,0,VALID,98.0852,VALID,0,VALID,18.0196,VALID,36,VALID,0,
2001-12-05, 02:39:00,VALID,916.894,VALID,0,VALID,98.262,VALID,0,VALID,18.0261,VALID,36,VALID,0,
2001-12-05, 02:40:00,VALID,916.872,VALID,0,VALID,98.3688,VALID,-0.0339617,VALID,18.0519,VALID,36,VALID,0,
2001-12-05, 02:41:00,VALID,916.844,VALID,0,VALID,98.571,VALID,0,VALID,18.1327,VALID,36,VALID,0,
2001-12-05, 02:42:00,VALID,916.838,VALID,0,VALID,98.6574,VALID,0,VALID,18.1873,VALID,36,VALID,0,
2001-12-05, 02:43:00,VALID,916.851,VALID,0,VALID,98.693,VALID,0,VALID,18.2392,VALID,36,VALID,0,
2001-12-05, 02:44:00,VALID,916.837,VALID,0,VALID,98.6803,VALID,0,VALID,18.2487,VALID,36,VALID,0,
2001-12-05, 02:45:00,VALID,916.85,VALID,0,VALID,98.6498,VALID,0,VALID,18.2519,VALID,36,VALID,0,
2001-12-05, 02:46:00,VALID,916.864,VALID,0,VALID,98.5672,VALID,0,VALID,18.2489,VALID,36,VALID,0,
2001-12-05, 02:47:00,VALID,916.856,VALID,0,VALID,98.5214,VALID,0,VALID,18.2136,VALID,36,VALID,0,
2001-12-05, 02:48:00,VALID,916.837,VALID,0,VALID,98.4654,VALID,-0.0169808,VALID,18.1846,VALID,46,VALID,0.0824424,
2001-12-05, 02:49:00,VALID,916.814,VALID,0,VALID,98.4298,VALID,0,VALID,18.1391,VALID,116,VALID,0.279139,
2001-12-05, 02:50:00,VALID,916.788,VALID,0,VALID,98.4273,VALID,-0.0169808,VALID,18.1165,VALID,122,VALID,0.362614,
2001-12-05, 02:51:00,VALID,916.773,VALID,0,VALID,98.4832,VALID,0,VALID,18.1004,VALID,107,VALID,0.50293,
2001-12-05, 02:52:00,VALID,916.774,VALID,0,VALID,98.3052,VALID,0,VALID,18.0616,VALID,89,VALID,0.34375,
2001-12-05, 02:53:00,VALID,916.774,VALID,0,VALID,98.276,VALID,0,VALID,18.0166,VALID,84,VALID,0.566406,
2001-12-05, 02:54:00,VALID,916.785,VALID,0,VALID,98.3001,VALID,0,VALID,17.9774,VALID,81,VALID,0.437695,
2001-12-05, 02:55:00,VALID,916.814,VALID,0,VALID,98.5099,VALID,0,VALID,17.9841,VALID,86,VALID,0.569311,
2001-12-05, 02:56:00,VALID,916.823,VALID,0,VALID,98.4909,VALID,0,VALID,18.007,VALID,113,VALID,0.576116,
2001-12-05, 02:57:00,VALID,916.828,VALID,0,VALID,98.777,VALID,0,VALID,18.0328,VALID,127,VALID,0.711328,
2001-12-05, 02:58:00,VALID,916.824,VALID,0,VALID,98.8202,VALID,-0.0169808,VALID,18.1043,VALID,114,VALID,0.62066,
2001-12-05, 02:59:00,VALID,916.807,VALID,0,VALID,98.7465,VALID,-0.0169808,VALID,18.0974,VALID,93,VALID,0.599392,
2001-12-05, 03:00:00,VALID,916.792,VALID,0,VALID,98.7261,VALID,0,VALID,18.0877,VALID,90,VALID,0.53726,
2001-12-05, 03:01:00,VALID,916.782,VALID,0,VALID,98.8227,VALID,0,VALID,18.0877,VALID,93,VALID,0.506579,
2001-12-05, 03:02:00,VALID,916.768,VALID,0,VALID,98.9448,VALID,-0.0169808,VALID,18.1294,VALID,93,VALID,0.369038,
2001-12-05, 03:03:00,VALID,916.759,VALID,0,VALID,98.9957,VALID,0,VALID,18.1979,VALID,94,VALID,0.181166,
2001-12-05, 03:04:00,VALID,916.767,VALID,0,VALID,98.9537,VALID,-0.0169808,VALID,18.2009,VALID,94,VALID,0.0208333,
2001-12-05, 03:05:00,VALID,916.769,VALID,0,VALID,98.7706,VALID,-0.0339617,VALID,18.1202,VALID,94,VALID,0.000844595,
2001-12-05, 03:06:00,VALID,916.774,VALID,0,VALID,98.5366,VALID,-0.0339617,VALID,17.9973,VALID,94,VALID,0,
2001-12-05, 03:07:00,VALID,916.792,VALID,0,VALID,98.4769,VALID,-0.0169808,VALID,17.9069,VALID,94,VALID,0,
2001-12-05, 03:08:00,VALID,916.782,VALID,0,VALID,98.4807,VALID,0,VALID,17.8522,VALID,94,VALID,0,
2001-12-05, 03:09:00,VALID,916.794,VALID,0,VALID,98.6473,VALID,-0.0169808,VALID,17.8524,VALID,94,VALID,0,
2001-12-05, 03:10:00,VALID,916.792,VALID,0,VALID,98.8482,VALID,0,VALID,17.9039,VALID,94,VALID,0,
2001-12-05, 03:11:00,VALID,916.785,VALID,0,VALID,98.9486,VALID,0,VALID,17.9654,VALID,98,VALID,0,
2001-12-05, 03:12:00,VALID,916.784,VALID,0,VALID,99.0046,VALID,-0.0169808,VALID,18.0397,VALID,123,VALID,0,
2001-12-05, 03:13:00,VALID,916.783,VALID,0,VALID,99.0313,VALID,-0.0339617,VALID,18.0879,VALID,134,VALID,0.189568,
2001-12-05, 03:14:00,VALID,916.78,VALID,0,VALID,99.0109,VALID,0,VALID,18.114,VALID,140,VALID,0.280839,
2001-12-05, 03:15:00,VALID,916.776,VALID,0,VALID,98.9779,VALID,-0.0339617,VALID,18.1137,VALID,145,VALID,0.382813,
2001-12-05, 03:16:00,VALID,916.785,VALID,0,VALID,98.9957,VALID,-0.0339617,VALID,18.1167,VALID,140,VALID,0.524523,
2001-12-05, 03:17:00,VALID,916.796,VALID,0,VALID,99.0249,VALID,-0.0169808,VALID,18.1329,VALID,139,VALID,0.546007,
2001-12-05, 03:18:00,VALID,916.797,VALID,0,VALID,99.0682,VALID,-0.0169808,VALID,18.1721,VALID,137,VALID,0.621299,
2001-12-05, 03:19:00,VALID,916.806,VALID,0,VALID,99.0847,VALID,0,VALID,18.1878,VALID,140,VALID,0.596284,
2001-12-05, 03:20:00,VALID,916.817,VALID,0,VALID,99.0961,VALID,0.0169808,VALID,18.2099,VALID,137,VALID,0.467411,
2001-12-05, 03:21:00,VALID,916.838,VALID,0,VALID,99.0987,VALID,0,VALID,18.2224,VALID,132,VALID,0.202902,
2001-12-05, 03:22:00,VALID,916.841,VALID,0,VALID,99.086,VALID,0.0509425,VALID,18.2259,VALID,130,VALID,0.200247,
2001-12-05, 03:23:00,VALID,916.849,VALID,0,VALID,99.0427,VALID,0.0679233,VALID,18.2224,VALID,116,VALID,0.314503,
2001-12-05, 03:24:00,VALID,916.843,VALID,0,VALID,98.997,VALID,0.0339617,VALID,18.1643,VALID,93,VALID,0.469531,
2001-12-05, 03:25:00,VALID,916.829,VALID,0,VALID,99.0389,VALID,0.0339617,VALID,18.1449,VALID,93,VALID,0.500822,
2001-12-05, 03:26:00,VALID,916.814,VALID,0,VALID,99.1343,VALID,0.0339617,VALID,18.1772,VALID,101,VALID,0.610008,
2001-12-05, 03:27:00,VALID,916.784,VALID,0,VALID,99.1483,VALID,0.0679233,VALID,18.2125,VALID,125,VALID,0.498998,
2001-12-05, 03:28:00,VALID,916.772,VALID,0,VALID,99.1674,VALID,0.0679233,VALID,18.2485,VALID,141,VALID,0.672476,
2001-12-05, 03:29:00,VALID,916.766,VALID,0,VALID,99.1928,VALID,0.0849042,VALID,18.2738,VALID,151,VALID,0.54988,
2001-12-05, 03:30:00,VALID,916.772,VALID,0,VALID,99.161,VALID,0.0339617,VALID,18.2842,VALID,146,VALID,0.627902,
2001-12-05, 03:31:00,VALID,916.778,VALID,0,VALID,99.1864,VALID,0.0169808,VALID,18.2805,VALID,144,VALID,0.635938,
2001-12-05, 03:32:00,VALID,916.776,VALID,0,VALID,99.1941,VALID,0.0509425,VALID,18.3034,VALID,139,VALID,0.546658,
2001-12-05, 03:33:00,VALID,916.789,VALID,0,VALID,99.2195,VALID,0.0169808,VALID,18.3324,VALID,140,VALID,0.354818,
2001-12-05, 03:34:00,VALID,916.796,VALID,0,VALID,99.2284,VALID,0.0339617,VALID,18.3645,VALID,149,VALID,0.245988,
2001-12-05, 03:35:00,VALID,916.794,VALID,0,VALID,99.2347,VALID,0.0339617,VALID,18.3975,VALID,170,VALID,0.173314,
2001-12-05, 03:36:00,VALID,916.796,VALID,0,VALID,99.2462,VALID,0.0169808,VALID,18.4099,VALID,173,VALID,0,
2001-12-05, 03:37:00,VALID,916.765,VALID,0,VALID,99.2449,VALID,0.0849042,VALID,18.4321,VALID,174,VALID,0,
2001-12-05, 03:38:00,VALID,916.734,VALID,0,VALID,99.2411,VALID,0.0339617,VALID,18.4385,VALID,174,VALID,0,
2001-12-05, 03:39:00,VALID,916.708,VALID,0,VALID,99.2398,VALID,0.0679233,VALID,18.4549,VALID,174,VALID,0,
2001-12-05, 03:40:00,VALID,916.7,VALID,0,VALID,99.2398,VALID,0.0339617,VALID,18.4681,VALID,174,VALID,0,
2001-12-05, 03:41:00,VALID,916.7,VALID,0,VALID,99.2449,VALID,0.0509425,VALID,18.4775,VALID,174,VALID,0,
2001-12-05, 03:42:00,VALID,916.707,VALID,0,VALID,99.2411,VALID,0.0339617,VALID,18.4835,VALID,170,VALID,0.0554687,